STARLINK-30973, 58713

Orbit data source: Space-Track

STARLINK-30973, 58713 is a payload satellite owned by SpaceX/Seattle (US) in LEO that was launched on Wed, 03 Jan 2024 UTC via an FALCON 9 launch vehicle from the Air Force Western Test Range (AFWTR). Payload-class satellites include a variety of spacecraft equipped with specific instruments for various scientific and technological missions. These include communications satellites like Starlink; space stations such as the ISS; scientific satellites like the Hubble; Earth observation satellites from companies like Planet Labs, Umbra, and HawkEye 360; GPS; miniature CubeSats for education and research; and military/defense satellites.

Loading next visibility...
Identifier
58713, 2024-002J
Orbit
LEO
Country
Flag of USUS
Related business
Manufacturer
SpaceX/Seattle
Mission
Operational Commercial Communications
Bus & Motor
STARLINK V2M, Unknown motor
Mass
730 kg wet, ~700 kg dry
Launch date (UTC)
2024-01-03 (2 years ago)
Launch vehicle
FALCON 9
Launch site
Air Force Western Test Range (AFWTR)
Object type
Payload
Rocket body
Debris
Shape & HBR
Box + 2 Pan, 17.7 m
Radar Cross Section
33.884 m², Large (>1 m²)

Expand to show TLE details & history
Last TLE update: 3 days ago

TLE from 3 days ago
0 STARLINK-30973
1 58713U 24002J   26170.10288600 -.00001199  00000-0 -28353-4 0  9990
2 58713  53.1594 118.7766 0001537  86.8146 273.3031 15.30189461137545
Epoch: 2026-06-19T02:28Z
TLE epoch observation values (Epoch: 2026-06-19T02:28:09.350Z)
Latitude
0.00002°
Longitude
174.40098°
Altitude
476.086 km
Speed
7.629 km/s
True Right ascension
07h 55m 06s
True Declination
0° 00' 00"
Sunlit
Object was in daylight at epoch
Visualization orbit readout
Latitude
Unknown
Longitude
Unknown
Altitude
Unknown
Speed
Unknown
Apparent Right ascension
Unknown
Apparent Declination
Unknown
Sunlit
N/A
Visualization observer readout
Local Sidereal Time
23:20:12
Azimuth
Unknown
Elevation
Unknown
Doppler factor
Unknown
Orbital elements
Apogee altitude
476.556 km
Perigee altitude
474.45 km
Semi-major axis
6,853.64 km
Eccentricity
0.00015
Inclination
53.1594°
RAAN
118.7766°
Arg. of periapsis
86.8146°
True anomaly
273.28552°
Mean anomaly
273.3031°
Eccentric anomaly
273.29431°
Mean motion
3.82526 °/min
Orbital period
94.11 mins
BSTAR
-0.000028353
Loading maneuver chart data...
Computing Atmospheric mass density...
Loading historical data...
Loading historical data...
Loading historical data...
Loading historical data...
Loading historical data...
Loading historical data...
Loading historical data...

Documentation

Showing up to 5 results
|